Time,TemperatureF,DewpointF,PressureIn,WindDirection,WindDirectionDegrees,WindSpeedMPH,WindSpeedGustMPH,Humidity,HourlyPrecipIn,Conditions,Clouds,dailyrainin,SoftwareType,DateUTC
2013-03-24 00:13:00,4.1,1.0,30.44,SW,232,2.0,5.0,86,0.00,,,0.00,weatherlink.com 1.10,2013-03-24 06:13:00,
2013-03-24 00:28:00,4.1,1.0,30.44,SSW,210,2.0,3.0,86,0.00,,,0.00,weatherlink.com 1.10,2013-03-24 06:28:00,
2013-03-24 00:44:00,4.0,1.0,30.44,SSW,210,0.0,3.0,86,0.00,,,0.00,weatherlink.com 1.10,2013-03-24 06:44:00,
2013-03-24 00:58:00,3.7,0.0,30.44,SW,215,3.0,5.0,85,0.00,,,0.00,weatherlink.com 1.10,2013-03-24 06:58:00,
2013-03-24 01:13:00,3.0,-1.0,30.44,SW,221,0.0,2.0,85,0.00,,,0.00,weatherlink.com 1.10,2013-03-24 07:13:00,
2013-03-24 01:28:00,2.2,-1.0,30.44,SSE,158,1.0,1.0,86,0.00,,,0.00,weatherlink.com 1.10,2013-03-24 07:28:00,
2013-03-24 01:43:00,2.5,-1.0,30.44,West,278,0.0,1.0,87,0.00,,,0.00,weatherlink.com 1.10,2013-03-24 07:43:00,
2013-03-24 01:58:00,1.5,-3.0,30.44,WNW,287,0.0,2.0,83,0.00,,,0.00,weatherlink.com 1.10,2013-03-24 07:58:00,
2013-03-24 02:13:00,0.2,-3.0,30.45,WNW,283,0.0,1.0,85,0.00,,,0.00,weatherlink.com 1.10,2013-03-24 08:13:00,
2013-03-24 02:28:00,-1.5,-5.0,30.45,WNW,282,0.0,0.0,83,0.00,,,0.00,weatherlink.com 1.10,2013-03-24 08:28:00,
2013-03-24 02:43:00,-3.0,-7.0,30.45,WNW,283,0.0,0.0,84,0.00,,,0.00,weatherlink.com 1.10,2013-03-24 08:43:00,
2013-03-24 02:58:00,-3.1,-7.0,30.45,WNW,283,0.0,0.0,85,0.00,,,0.00,weatherlink.com 1.10,2013-03-24 08:58:00,
2013-03-24 03:13:00,-1.6,-4.0,30.45,West,271,0.0,2.0,89,0.00,,,0.00,weatherlink.com 1.10,2013-03-24 09:13:00,
2013-03-24 03:28:00,0.4,-3.0,30.45,SW,221,0.0,1.0,86,0.00,,,0.00,weatherlink.com 1.10,2013-03-24 09:28:00,
2013-03-24 03:43:00,-0.4,-4.0,30.44,SW,219,0.0,0.0,85,0.00,,,0.00,weatherlink.com 1.10,2013-03-24 09:43:00,
2013-03-24 03:58:00,-1.5,-5.0,30.44,SW,225,0.0,0.0,84,0.00,,,0.00,weatherlink.com 1.10,2013-03-24 09:58:00,
2013-03-24 04:14:00,-2.5,-6.0,30.44,WSW,239,0.0,0.0,84,0.00,,,0.00,weatherlink.com 1.10,2013-03-24 10:14:00,
2013-03-24 04:29:00,-3.3,-7.0,30.44,WSW,239,0.0,0.0,84,0.00,,,0.00,weatherlink.com 1.10,2013-03-24 10:29:00,
2013-03-24 04:44:00,-3.0,-6.0,30.44,WSW,239,0.0,0.0,86,0.00,,,0.00,weatherlink.com 1.10,2013-03-24 10:44:00,
2013-03-24 04:59:00,-2.3,-6.0,30.45,WSW,239,0.0,0.0,86,0.00,,,0.00,weatherlink.com 1.10,2013-03-24 10:59:00,
2013-03-24 05:14:00,-1.6,-5.0,30.45,WSW,239,0.0,0.0,86,0.00,,,0.00,weatherlink.com 1.10,2013-03-24 11:14:00,
2013-03-24 05:29:00,-1.1,-4.0,30.45,West,263,0.0,0.0,86,0.00,,,0.00,weatherlink.com 1.10,2013-03-24 11:29:00,
2013-03-24 05:44:00,-0.5,-4.0,30.45,West,266,0.0,0.0,86,0.00,,,0.00,weatherlink.com 1.10,2013-03-24 11:44:00,
2013-03-24 05:59:00,-0.1,-3.0,30.45,West,266,0.0,0.0,86,0.00,,,0.00,weatherlink.com 1.10,2013-03-24 11:59:00,
2013-03-24 06:14:00,-0.2,-4.0,30.45,West,266,0.0,0.0,85,0.00,,,0.00,weatherlink.com 1.10,2013-03-24 12:14:00,
2013-03-24 06:29:00,-0.2,-4.0,30.45,West,266,0.0,0.0,85,0.00,,,0.00,weatherlink.com 1.10,2013-03-24 12:29:00,
2013-03-24 06:44:00,-0.1,-4.0,30.46,West,268,0.0,0.0,85,0.00,,,0.00,weatherlink.com 1.10,2013-03-24 12:44:00,
2013-03-24 06:59:00,0.3,-3.0,30.46,West,268,0.0,0.0,86,0.00,,,0.00,weatherlink.com 1.10,2013-03-24 12:59:00,
2013-03-24 07:14:00,0.7,-3.0,30.47,West,269,0.0,0.0,86,0.00,,,0.00,weatherlink.com 1.10,2013-03-24 13:14:00,
2013-03-24 07:29:00,2.1,-1.0,30.47,SE,142,0.0,1.0,87,0.00,,,0.00,weatherlink.com 1.10,2013-03-24 13:29:00,
2013-03-24 07:44:00,3.7,1.0,30.47,WSW,238,2.0,2.0,87,0.00,,,0.00,weatherlink.com 1.10,2013-03-24 13:44:00,
2013-03-24 08:00:00,5.7,3.0,30.47,WSW,245,1.0,1.0,87,0.00,,,0.00,weatherlink.com 1.10,2013-03-24 14:00:00,
2013-03-24 08:14:00,7.1,4.0,30.47,NNW,336,0.0,1.0,87,0.00,,,0.00,weatherlink.com 1.10,2013-03-24 14:14:00,
2013-03-24 08:29:00,8.3,5.0,30.47,SSE,160,0.0,0.0,86,0.00,,,0.00,weatherlink.com 1.10,2013-03-24 14:29:00,
2013-03-24 08:44:00,8.9,5.0,30.48,WSW,240,0.0,3.0,84,0.00,,,0.00,weatherlink.com 1.10,2013-03-24 14:44:00,
2013-03-24 08:59:00,9.5,6.0,30.47,South,186,2.0,5.0,84,0.00,,,0.00,weatherlink.com 1.10,2013-03-24 14:59:00,
2013-03-24 09:14:00,10.3,5.0,30.47,SW,233,1.0,6.0,79,0.00,,,0.00,weatherlink.com 1.10,2013-03-24 15:14:00,
2013-03-24 09:29:00,10.6,4.0,30.47,West,278,3.0,8.0,76,0.00,,,0.00,weatherlink.com 1.10,2013-03-24 15:29:00,
2013-03-24 09:44:00,10.4,5.0,30.48,WNW,284,1.0,8.0,77,0.00,,,0.00,weatherlink.com 1.10,2013-03-24 15:44:00,
2013-03-24 09:59:00,10.4,5.0,30.48,West,269,5.0,9.0,77,0.00,,,0.00,weatherlink.com 1.10,2013-03-24 15:59:00,
2013-03-24 10:14:00,11.0,4.0,30.48,WNW,294,8.0,9.0,74,0.00,,,0.00,weatherlink.com 1.10,2013-03-24 16:14:00,
2013-03-24 10:29:00,11.3,3.0,30.48,WNW,287,5.0,13.0,69,0.00,,,0.00,weatherlink.com 1.10,2013-03-24 16:29:00,
2013-03-24 10:44:00,11.5,4.0,30.48,WNW,290,2.0,11.0,72,0.00,,,0.00,weatherlink.com 1.10,2013-03-24 16:44:00,
2013-03-24 10:59:00,12.0,4.0,30.48,West,274,7.0,9.0,71,0.00,,,0.00,weatherlink.com 1.10,2013-03-24 16:59:00,
2013-03-24 11:14:00,11.4,4.0,30.48,WSW,250,2.0,12.0,73,0.00,,,0.00,weatherlink.com 1.10,2013-03-24 17:14:00,
2013-03-24 11:29:00,11.0,4.0,30.48,WNW,285,4.0,15.0,74,0.00,,,0.00,weatherlink.com 1.10,2013-03-24 17:29:00,
2013-03-24 11:44:00,11.5,4.0,30.47,NNW,329,6.0,14.0,72,0.00,,,0.00,weatherlink.com 1.10,2013-03-24 17:44:00,
2013-03-24 11:59:00,11.5,5.0,30.47,NW,304,3.0,10.0,76,0.00,,,0.00,weatherlink.com 1.10,2013-03-24 17:59:00,
2013-03-24 12:14:00,12.2,6.0,30.47,NNW,343,4.0,11.0,77,0.00,,,0.00,weatherlink.com 1.10,2013-03-24 18:14:00,
2013-03-24 12:29:00,12.1,7.0,30.46,NNE,20,3.0,8.0,79,0.00,,,0.00,weatherlink.com 1.10,2013-03-24 18:29:00,
2013-03-24 12:44:00,12.1,7.0,30.46,NW,309,1.0,6.0,81,0.00,,,0.00,weatherlink.com 1.10,2013-03-24 18:44:00,
2013-03-24 12:59:00,11.7,6.0,30.46,West,280,0.0,-999.0,79,-99.99,,,0.00,weatherlink.com 1.10,2013-03-24 18:59:00,
2013-03-24 13:14:00,11.0,7.0,30.46,NNW,335,2.0,12.0,82,0.00,,,0.00,weatherlink.com 1.10,2013-03-24 19:14:00,
2013-03-24 13:29:00,11.5,6.0,30.45,NNE,13,4.0,7.0,79,0.00,,,0.00,weatherlink.com 1.10,2013-03-24 19:29:00,
2013-03-24 13:44:00,13.1,6.0,30.44,NNE,20,0.0,8.0,72,0.00,,,0.00,weatherlink.com 1.10,2013-03-24 19:44:00,
2013-03-24 13:59:00,13.7,7.0,30.44,SW,225,1.0,4.0,73,0.00,,,0.00,weatherlink.com 1.10,2013-03-24 19:59:00,
2013-03-24 14:14:00,13.8,0.0,30.44,WSW,253,6.0,21.0,55,0.00,,,0.00,weatherlink.com 1.10,2013-03-24 20:14:00,
2013-03-24 14:29:00,13.9,2.0,30.44,North,352,7.0,22.0,58,0.00,,,0.00,weatherlink.com 1.10,2013-03-24 20:29:00,
2013-03-24 14:44:00,16.5,3.0,30.44,West,276,3.0,13.0,55,0.00,,,0.00,weatherlink.com 1.10,2013-03-24 20:44:00,
2013-03-24 14:59:00,14.4,4.0,30.44,SW,233,7.0,20.0,63,0.00,,,0.00,weatherlink.com 1.10,2013-03-24 20:59:00,
2013-03-24 15:14:00,13.6,3.0,30.45,WNW,287,1.0,17.0,64,0.00,,,0.00,weatherlink.com 1.10,2013-03-24 21:14:00,
2013-03-24 15:29:00,14.1,4.0,30.45,NNE,20,3.0,17.0,63,0.00,,,0.00,weatherlink.com 1.10,2013-03-24 21:29:00,
2013-03-24 15:44:00,13.0,4.0,30.45,NNW,329,4.0,20.0,66,0.00,,,0.00,weatherlink.com 1.10,2013-03-24 21:44:00,
2013-03-24 15:59:00,12.6,4.0,30.45,NW,306,5.0,11.0,69,0.00,,,0.00,weatherlink.com 1.10,2013-03-24 21:59:00,
2013-03-24 16:15:00,12.5,5.0,30.46,WNW,299,1.0,7.0,73,0.00,,,0.00,weatherlink.com 1.10,2013-03-24 22:15:00,
2013-03-24 16:29:00,12.8,3.0,30.46,West,274,4.0,9.0,64,0.00,,,0.00,weatherlink.com 1.10,2013-03-24 22:29:00,
2013-03-24 16:44:00,12.9,3.0,30.47,NW,307,7.0,19.0,65,0.00,,,0.00,weatherlink.com 1.10,2013-03-24 22:44:00,
2013-03-24 16:59:00,11.8,4.0,30.46,WNW,291,1.0,10.0,72,0.00,,,0.00,weatherlink.com 1.10,2013-03-24 22:59:00,
2013-03-24 17:14:00,12.4,2.0,30.46,WNW,293,8.0,13.0,64,0.00,,,0.00,weatherlink.com 1.10,2013-03-24 23:14:00,
2013-03-24 17:30:00,12.5,2.0,30.46,NW,316,6.0,16.0,62,0.00,,,0.00,weatherlink.com 1.10,2013-03-24 23:30:00,
2013-03-24 17:45:00,12.6,3.0,30.46,NNW,345,4.0,13.0,66,0.00,,,0.00,weatherlink.com 1.10,2013-03-24 23:45:00,
2013-03-24 18:00:00,12.4,3.0,30.47,WNW,283,2.0,9.0,65,0.00,,,0.00,weatherlink.com 1.10,2013-03-25 00:00:00,
2013-03-24 18:15:00,14.4,1.0,30.48,ENE,65,0.0,9.0,56,0.00,,,0.00,weatherlink.com 1.10,2013-03-25 00:15:00,
2013-03-24 18:30:00,14.7,2.0,30.49,NNW,341,4.0,14.0,56,0.00,,,0.00,weatherlink.com 1.10,2013-03-25 00:30:00,
2013-03-24 18:45:00,13.1,3.0,30.50,NW,315,11.0,14.0,64,0.00,,,0.00,weatherlink.com 1.10,2013-03-25 00:45:00,
2013-03-24 19:00:00,11.6,4.0,30.50,WNW,294,7.0,10.0,70,0.00,,,0.00,weatherlink.com 1.10,2013-03-25 01:00:00,
2013-03-24 19:15:00,11.2,3.0,30.51,NW,309,0.0,5.0,69,0.00,,,0.00,weatherlink.com 1.10,2013-03-25 01:15:00,
2013-03-24 19:30:00,10.8,3.0,30.52,East,94,7.0,9.0,69,0.00,,,0.00,weatherlink.com 1.10,2013-03-25 01:30:00,
2013-03-24 19:45:00,10.1,4.0,30.53,ESE,109,4.0,4.0,76,0.00,,,0.00,weatherlink.com 1.10,2013-03-25 01:45:00,
2013-03-24 20:00:00,8.8,4.0,30.53,ENE,63,3.0,5.0,82,0.00,,,0.00,weatherlink.com 1.10,2013-03-25 02:00:00,
2013-03-24 20:15:00,8.2,4.0,30.54,NE,53,2.0,5.0,84,0.00,,,0.00,weatherlink.com 1.10,2013-03-25 02:15:00,
2013-03-24 20:30:00,8.1,5.0,30.54,East,79,4.0,8.0,85,0.00,,,0.00,weatherlink.com 1.10,2013-03-25 02:30:00,
2013-03-24 20:45:00,8.0,5.0,30.55,North,359,0.0,2.0,86,0.00,,,0.00,weatherlink.com 1.10,2013-03-25 02:45:00,
2013-03-24 21:00:00,8.0,5.0,30.55,NW,325,1.0,4.0,86,0.00,,,0.00,weatherlink.com 1.10,2013-03-25 03:00:00,
2013-03-24 21:15:00,7.9,5.0,30.56,ENE,72,0.0,2.0,86,0.00,,,0.00,weatherlink.com 1.10,2013-03-25 03:15:00,
2013-03-24 21:30:00,7.7,4.0,30.56,ENE,72,0.0,1.0,85,0.00,,,0.00,weatherlink.com 1.10,2013-03-25 03:30:00,
2013-03-24 21:45:00,7.5,4.0,30.56,ENE,72,0.0,0.0,85,0.00,,,0.00,weatherlink.com 1.10,2013-03-25 03:45:00,
2013-03-24 22:00:00,7.1,4.0,30.56,ENE,72,0.0,0.0,86,0.00,,,0.00,weatherlink.com 1.10,2013-03-25 04:00:00,
2013-03-24 22:15:00,6.8,4.0,30.56,ENE,72,0.0,0.0,86,0.00,,,0.00,weatherlink.com 1.10,2013-03-25 04:15:00,
2013-03-24 22:30:00,6.8,4.0,30.55,ENE,72,0.0,0.0,86,0.00,,,0.00,weatherlink.com 1.10,2013-03-25 04:30:00,
2013-03-24 22:45:00,6.8,4.0,30.55,SE,129,0.0,0.0,86,0.00,,,0.00,weatherlink.com 1.10,2013-03-25 04:45:00,
2013-03-24 23:00:00,6.9,4.0,30.55,SW,236,0.0,0.0,86,0.00,,,0.00,weatherlink.com 1.10,2013-03-25 05:00:00,
2013-03-24 23:15:00,6.7,3.0,30.55,WSW,242,0.0,0.0,86,0.00,,,0.00,weatherlink.com 1.10,2013-03-25 05:15:00,
2013-03-24 23:30:00,6.7,3.0,30.55,WSW,242,0.0,0.0,86,0.00,,,0.00,weatherlink.com 1.10,2013-03-25 05:30:00,
2013-03-24 23:45:00,7.1,4.0,30.55,WSW,249,0.0,0.0,86,0.00,,,0.00,weatherlink.com 1.10,2013-03-25 05:45:00,